星链-30201 (STARLINK-30201 )

导读

STARLINK-30201是美国SpaceX星链(Starlink)项目的低轨通信卫星,于2023年7月10日发射入轨。作为星链第二代星座的组成部分,它运行在约550公里近地轨道,配备激光星间链路与相控阵通信技术,可为全球提供低延迟高速宽带服务,支持偏远地区接入、应急通信等场景,具备自主变轨避撞能力,退役后会在大气层完全烧毁,减少空间碎片影响。

基本信息
目录编号:
57301
目录名称:
STARLINK-30201
国际标识:
2023-096M
轨道中心:
EARTH
卫星名称:
星链-30201
卫星全名:
星链-30201 (STARLINK-30201 )
卫星状态:
在轨 (已飞行1159 天)
发射日期:
2023-07-10 UTC
国别 :
美国 (US)
星等 :
--
该卫星已列入 空间交会检测服务 Space Conjunction Data Service (SCDS) ,当前飞行风险评估等级: 高风险
轨道信息
数据来源 国际轨道数据
星历时间: 2026-09-11T09:11:41+0800
15小时前
查看轨道信息
半长轴: 6861.431km
偏心率: 0.0002221
轨道倾角: 43.004°
近地点辐角 164.309°
升交点赤经 256.539°
平近点角 195.784°
近地点: 481.77km
远地点: 484.818km
周期: 94.272分钟
每日圈数: 15.274984
详细信息
固有亮度:
5
最大亮度:
0.3
卫星平台:
Starlink v2.0 mini
覆盖范围:
全球
运营商:
太空探索技术公司
运营商所在国:
美国
制造商(研发单位):
太空探索技术公司
制造商所在国:
美国
使用方式:
暂无
卫星简介
星链(Starlink)计划是由太空探索技术公司(SpaceX)提出的一个巨型低轨卫星互联网星座项目,计划在2019年至2024年间在太空搭建由约1.2万颗卫星组成的“星链”网络,其中1584颗将部署在地球上空550千米处的近地轨道,并从2020年开始工作。该卫星仍在工作。
2D轨道图
3D轨道图
轨道高度分析图
轨道倾角分析图
轨道综合分析图
查看轨道综合分析图
与全量物体交会距离演化趋势
与全量物体交会风险概率演化趋势